Location: San Gennaro Vesuviano
(40.8833°N, 14.5333°E)
Time: 11:35:42
(UTC+00:00)

SPOT 1/Viking Rocket - Pass Details

Date: 22 April 2021
Orbit: 777 x 794 km, 98.4° (Epoch: 11 May)

Event Time Altitude Azimuth Distance (km) Brightness Sun altitude
Exits shadow 19:33:39 32° 109° (ESE) 1,336 4.2 -18.5°
Maximum altitude 19:35:14 40° 70° (ENE) 1,154 4.1 -18.7°
Drops below altitude 10° 19:40:05 10° 2° (N) 2,369 6.5 -19.4°
Sets 19:42:32 0° 355° (N) 3,301 7.4 -19.8°
